Location: Kapuskasing
(49.3803°N, 82.4001°W)
Time: 10:01:16
(UTC-04:00)

Envisat - Pass Details

Date: 22 March 2026
Orbit: 761 x 762 km, 98.4° (Epoch: 19 April)

Event Time Altitude Azimuth Distance (km) Brightness Sun altitude
Rises 02:37:43 0° 31° (NNE) 3,235 7.1 -38.3°
Reaches altitude 10° 02:41:33 10° 61° (ENE) 2,302 5.9 -38.0°
Enters shadow 02:42:42 12° 74° (ENE) 2,169 5.7 -38.0°
